This demonstration page uses our WeatherBlox Daily Observations layout. Learn more.

Left ArrowRight Arrow

36.19886, -115.1175

Hourly Observations for October 25, 2021

Temp ( °F °C ) Dew Point ( °F °C ) Humidity (%) Winds ( mph kmh ) Pressure ( in mb ) Visibility ( mi km ) Precip ( " mm )
12:53 am 00:53 Clear 72 22.2 39 3.9 30 30 SE 17 28 29.78 1009 10 16 N/A
1:53 am 01:53 Clear 68 20 36 2.2 31 31 ESE 10 17 29.78 1008 10 16 N/A
2:53 am 02:53 Clear 67 19.4 37 2.8 33 33 E 13 20 29.76 1008 10 16 N/A
3:53 am 03:53 Clear 65 18.3 37 2.8 36 36 E 13 20 29.75 1007 10 16 N/A
4:53 am 04:53 Clear 66 18.9 38 3.3 36 36 ENE 7 11 29.75 1008 10 16 N/A
5:53 am 05:53 Clear 66 18.9 38 3.3 36 36 ESE 7 11 29.75 1007 10 16 N/A
6:53 am 06:53 Clear 65 18.3 39 3.9 39 39 ESE 6 9 29.74 1007 10 16 N/A
7:53 am 07:53 Sunny 68 20 40 4.4 36 36 SE 17 28 29.74 1007 10 16 N/A
8:53 am 08:53 Sunny 71 21.7 41 5 34 34 SSE 14 22 29.73 1007 10 16 N/A
9:53 am 09:53 Sunny 73 22.8 41 5 32 32 SSE 20 31 29.71 1006 10 16 N/A
10:53 am 10:53 Sunny 74 23.3 45 7.2 36 36 ESE 13 20 29.69 1005 10 16 N/A
11:53 am 11:53 Sunny 76 24.4 45 7.2 33 33 S 15 24 29.65 1004 10 16 N/A
12:08 pm 12:08 Sunny 79 26.1 41 5 26 26 S 22 35 29.52 1000 10 16 N/A
12:53 pm 12:53 Sunny 78 25.6 42 5.6 28 28 S 23 37 29.61 1003 10 16 N/A
1:53 pm 13:53 Sunny 79 26.1 44 6.7 29 29 S 22 35 29.59 1002 10 16 N/A
2:53 pm 14:53 Cloudy 78 25.6 44 6.7 30 30 SW 16 26 29.59 1002 10 16 N/A
3:53 pm 15:53 Cloudy 74 23.3 47 8.3 38 38 SW 21 33 29.60 1003 10 16 N/A
4:53 pm 16:53 Cloudy 68 20 47 8.3 47 47 WSW 22 35 29.63 1003 10 16 N/A
5:53 pm 17:53 Cloudy 65 18.3 44 6.7 47 47 WSW 20 31 29.64 1004 10 16 N/A
6:53 pm 18:53 Cloudy with Light Rain 63 17.2 47 8.3 56 56 SSW 16 26 29.67 1005 9 14 0.00 0.00
7:53 pm 19:53 Cloudy 63 17.2 44 6.7 50 50 WSW 7 11 29.70 1006 10 16 0.00 0.00
8:53 pm 20:53 Mostly Cloudy 60 15.6 38 3.3 44 44 S 15 24 29.70 1006 10 16 N/A
9:53 pm 21:53 Clear 59 15 39 3.9 48 48 W 12 19 29.72 1006 10 16 N/A
10:53 pm 22:53 Clear 56 13.3 38 3.3 51 51 WNW 23 37 29.79 1009 10 16 0.00 0.00
11:53 pm 23:53 Clear 56 13.3 36 2.2 47 47 NNW 8 13 29.79 1009 10 16 N/A

Powered by AerisWeather